Date,Time,Wetness (Wet Dry or Ice),Wind Speed (m/s),Temperature (C),Humidity (%),Pressure (mb),Radiation (W/m^2)
2020-04-27,04:40:00,DRY,3.87,3.67,80.7,772.00,1.4
2020-04-27,04:45:00,DRY,3.70,3.70,81.0,772.00,1.6
2020-04-27,04:50:00,DRY,3.10,3.50,79.7,772.00,1.6
2020-04-27,04:55:00,DRY,2.95,3.45,79.0,772.00,1.4
2020-04-27,05:00:00,DRY,2.20,3.37,80.3,772.00,1.5
2020-04-27,05:05:00,DRY,4.20,4.05,57.0,771.50,1.2
2020-04-27,05:10:00,DRY,2.53,3.77,75.7,771.67,0.9
2020-04-27,05:15:00,DRY,2.65,3.25,85.5,771.00,1.4
2020-04-27,05:20:00,DRY,2.30,3.30,80.7,772.00,1.3
2020-04-27,05:25:00,DRY,1.85,3.35,79.5,772.00,0.8
2020-04-27,05:30:00,DRY,1.30,3.47,74.7,772.00,1.9
2020-04-27,05:35:00,DRY,3.15,4.05,67.0,772.00,1.9
2020-04-27,05:40:00,DRY,3.63,4.37,61.7,772.00,1.4
2020-04-27,05:45:00,DRY,3.30,4.45,57.5,772.00,1.2
2020-04-27,05:50:00,DRY,3.67,4.27,60.0,772.00,1.5
2020-04-27,05:55:00,DRY,3.60,4.15,62.0,772.00,1.1
2020-04-27,06:00:00,DRY,3.83,4.43,45.3,772.00,0.9
2020-04-27,06:05:00,DRY,2.60,4.85,41.0,772.00,1.7
2020-04-27,06:10:00,DRY,3.37,4.93,32.7,772.00,1.6
2020-04-27,06:15:00,DRY,3.40,5.25,26.0,772.00,1.4
2020-04-27,06:20:00,DRY,2.57,5.03,34.3,772.00,1.6
2020-04-27,06:25:00,DRY,3.30,4.70,39.5,772.00,2.8
2020-04-27,06:30:00,DRY,1.93,4.37,38.0,772.00,6.1
2020-04-27,06:35:00,DRY,3.95,5.10,26.0,772.00,10.7
2020-04-27,06:40:00,DRY,2.30,5.13,33.0,772.00,19.7
2020-04-27,06:45:00,DRY,2.35,4.40,36.5,772.00,34.0
2020-04-27,06:50:00,DRY,2.60,4.43,48.7,772.00,52.5
2020-04-27,06:55:00,DRY,1.65,4.25,45.0,772.00,74.0
2020-04-27,07:00:00,DRY,2.30,4.37,50.7,772.00,98.2
2020-04-27,07:05:00,DRY,3.20,4.05,57.5,772.00,118.6
2020-04-27,07:10:00,DRY,3.20,4.00,66.3,772.00,139.0
2020-04-27,07:15:00,DRY,2.60,3.75,65.0,772.00,161.0
2020-04-27,07:20:00,DRY,2.43,3.90,53.3,772.00,181.8
2020-04-27,07:25:00,DRY,1.25,4.35,46.5,772.00,204.5
2020-04-27,07:30:00,DRY,1.30,4.40,42.7,772.00,227.7
2020-04-27,07:35:00,DRY,2.35,4.45,45.5,772.00,251.3
2020-04-27,07:40:00,DRY,1.97,4.43,46.0,772.00,273.2
2020-04-27,07:45:00,DRY,1.90,4.55,38.5,772.00,295.9
2020-04-27,07:50:00,DRY,2.50,5.30,33.7,772.00,319.9
2020-04-27,07:55:00,DRY,1.25,5.50,24.0,772.00,343.7
2020-04-27,08:00:00,DRY,1.80,6.37,21.7,772.00,366.0
2020-04-27,08:05:00,DRY,3.20,6.45,19.0,772.00,388.5
2020-04-27,08:10:00,DRY,2.17,7.10,18.3,772.00,410.1
2020-04-27,08:15:00,DRY,2.05,7.10,20.5,772.00,430.9
2020-04-27,08:20:00,DRY,2.03,7.20,24.3,772.00,453.8
2020-04-27,08:25:00,DRY,1.95,7.30,25.5,772.00,475.0
2020-04-27,08:30:00,DRY,1.93,7.27,24.0,772.00,497.1
2020-04-27,08:35:00,DRY,2.00,7.15,27.0,772.00,519.8
2020-04-27,08:40:00,DRY,2.30,7.10,28.3,772.00,540.7
2020-04-27,08:45:00,DRY,1.60,6.90,49.5,772.00,561.5
2020-04-27,08:50:00,DRY,2.43,6.43,40.0,772.00,582.4
2020-04-27,08:55:00,DRY,2.40,6.60,33.0,772.00,603.4
2020-04-27,09:00:00,DRY,2.75,6.90,29.5,772.00,625.2
2020-04-27,09:05:00,DRY,2.30,7.35,23.5,772.00,646.9
2020-04-27,09:10:00,DRY,1.27,7.70,24.7,772.00,668.5
2020-04-27,09:15:00,DRY,2.15,7.60,25.5,772.00,687.8
2020-04-27,09:20:00,DRY,0.87,7.67,40.7,772.00,707.3
2020-04-27,09:25:00,DRY,0.45,7.75,43.0,772.00,727.2
2020-04-27,09:30:00,DRY,1.03,7.77,50.0,772.00,747.7
2020-04-27,09:35:00,DRY,0.95,7.95,47.5,772.00,767.2
2020-04-27,09:40:00,DRY,0.63,7.97,52.7,772.00,785.8
2020-04-27,09:45:00,DRY,1.50,8.30,64.0,772.00,803.4
2020-04-27,09:50:00,DRY,1.73,8.30,70.7,772.00,819.3
2020-04-27,09:55:00,DRY,0.60,8.15,65.0,772.00,837.1
2020-04-27,10:00:00,DRY,1.67,8.30,56.7,772.33,854.4
2020-04-27,10:05:00,DRY,1.50,8.40,64.0,772.00,872.0
2020-04-27,10:10:00,DRY,1.10,7.83,81.7,772.00,890.7
2020-04-27,10:15:00,DRY,1.10,7.95,70.5,772.50,906.8
2020-04-27,10:20:00,DRY,1.60,8.23,75.0,773.00,932.1
2020-04-27,10:25:00,DRY,1.00,8.20,81.5,773.00,816.2
2020-04-27,10:30:00,DRY,1.03,7.80,76.0,773.00,952.0
2020-04-27,10:35:00,DRY,1.20,7.95,82.0,773.00,966.7
2020-04-27,10:40:00,DRY,1.17,8.43,77.3,773.00,995.2
2020-04-27,10:45:00,DRY,1.30,8.15,81.0,773.00,1041.7
2020-04-27,10:50:00,DRY,2.03,7.53,90.3,773.00,925.0
2020-04-27,10:55:00,DRY,0.55,6.70,91.5,773.00,848.1
2020-04-27,11:00:00,DRY,0.77,7.50,85.3,773.00,919.7
2020-04-27,11:05:00,DRY,0.70,8.40,82.5,773.00,1067.3
2020-04-27,11:10:00,DRY,1.83,8.30,78.3,773.00,1074.5
2020-04-27,11:15:00,DRY,2.15,9.25,73.0,773.00,1134.8
2020-04-27,11:20:00,DRY,1.07,8.93,83.0,773.00,1161.8
2020-04-27,11:25:00,DRY,1.05,8.10,83.0,773.00,870.6
2020-04-27,11:30:00,DRY,1.30,8.77,83.7,773.00,1260.9
2020-04-27,11:35:00,DRY,1.10,8.45,83.0,773.00,746.9
2020-04-27,11:40:00,DRY,1.73,8.20,83.3,773.00,1353.0
2020-04-27,11:45:00,DRY,1.65,7.80,86.5,773.00,944.4
2020-04-27,11:50:00,DRY,2.07,7.43,89.7,773.00,536.8
2020-04-27,11:55:00,DRY,1.75,7.45,90.0,773.00,372.5
2020-04-27,12:00:00,DRY,1.87,7.37,92.7,773.00,448.3
2020-04-27,12:05:00,DRY,1.35,7.20,94.5,773.00,1488.3
2020-04-27,12:10:00,DRY,1.23,7.47,88.7,773.00,1233.2
2020-04-27,12:15:00,DRY,2.30,8.10,82.5,773.00,823.5
2020-04-27,12:20:00,DRY,2.40,7.37,91.7,773.00,626.4
2020-04-27,12:25:00,DRY,1.30,6.95,98.0,773.00,373.6
2020-04-27,12:30:00,DRY,2.37,6.70,98.7,773.00,345.1
2020-04-27,12:35:00,DRY,3.50,6.40,99.0,773.00,659.7
2020-04-27,12:40:00,DRY,2.27,6.33,99.3,773.00,691.8
2020-04-27,12:45:00,DRY,2.20,6.55,99.5,773.00,799.5
2020-04-27,12:50:00,DRY,2.10,6.47,99.3,773.00,651.3
2020-04-27,12:55:00,DRY,3.00,6.45,99.0,773.00,1061.2
2020-04-27,13:00:00,DRY,2.20,6.03,96.3,773.00,718.1
2020-04-27,13:05:00,DRY,3.00,6.30,97.5,773.00,767.6
2020-04-27,13:10:00,DRY,3.10,6.53,93.3,773.00,1064.4
2020-04-27,13:15:00,DRY,3.85,6.50,95.0,773.00,611.0
2020-04-27,13:20:00,DRY,3.53,6.33,98.0,773.00,778.3
2020-04-27,13:25:00,DRY,2.40,6.40,98.0,773.00,518.5
2020-04-27,13:30:00,DRY,2.60,6.60,99.0,773.00,627.6
2020-04-27,13:35:00,DRY,1.90,6.40,98.0,773.00,538.3
2020-04-27,13:40:00,DRY,2.47,6.57,97.0,773.00,940.0
2020-04-27,13:45:00,DRY,2.20,6.50,97.0,773.00,599.7
2020-04-27,13:50:00,DRY,1.70,7.10,93.3,773.00,780.4
2020-04-27,13:55:00,DRY,2.20,6.45,96.5,773.00,602.9
2020-04-27,14:00:00,DRY,3.10,6.50,94.7,772.67,1054.0
2020-04-27,14:05:00,DRY,2.20,6.40,94.5,773.00,689.0
2020-04-27,14:10:00,DRY,2.10,6.23,98.3,772.33,709.3
2020-04-27,14:15:00,DRY,2.30,6.10,99.0,773.00,409.4
2020-04-27,14:20:00,DRY,3.40,5.93,99.3,772.67,435.8
2020-04-27,14:25:00,DRY,4.15,6.15,100.0,773.00,583.5
2020-04-27,14:30:00,DRY,3.37,6.03,99.3,772.67,934.2
2020-04-27,14:35:00,DRY,4.20,6.00,97.5,772.50,854.6
2020-04-27,14:40:00,DRY,2.40,6.33,98.3,772.67,1015.4
2020-04-27,14:45:00,DRY,2.35,6.05,98.0,773.00,668.3
2020-04-27,14:50:00,DRY,2.57,6.23,98.7,772.67,685.3
2020-04-27,14:55:00,DRY,3.90,6.10,98.0,773.00,769.1
2020-04-27,15:00:00,DRY,1.53,6.17,98.3,772.67,651.3
2020-04-27,15:05:00,DRY,2.90,6.35,97.5,772.00,811.6
2020-04-27,15:10:00,DRY,1.93,6.57,95.0,772.33,905.0
2020-04-27,15:15:00,DRY,2.20,6.80,95.5,772.50,997.0
2020-04-27,15:20:00,DRY,3.33,6.97,92.0,772.33,981.6
2020-04-27,15:25:00,DRY,3.40,6.35,93.5,772.00,627.6
2020-04-27,15:30:00,DRY,2.17,6.60,98.0,772.33,624.8
2020-04-27,15:35:00,DRY,3.60,7.00,95.0,772.00,539.1
2020-04-27,15:40:00,DRY,1.90,6.43,97.3,772.00,772.2
2020-04-27,15:45:00,DRY,1.15,6.50,97.5,772.00,1121.2
2020-04-27,15:50:00,DRY,2.60,8.03,88.7,772.00,1154.7
2020-04-27,15:55:00,DRY,1.50,8.15,87.0,772.00,723.5
2020-04-27,16:00:00,DRY,1.77,6.43,92.3,772.00,511.9
2020-04-27,16:05:00,DRY,1.60,6.25,93.0,772.00,524.9
2020-04-27,16:10:00,DRY,2.20,5.77,97.3,772.00,635.0
2020-04-27,16:15:00,DRY,3.55,6.00,92.0,772.00,603.0
2020-04-27,16:20:00,DRY,2.87,6.00,97.0,772.00,490.5
2020-04-27,16:25:00,DRY,1.20,5.90,98.5,772.00,425.5
2020-04-27,16:30:00,DRY,2.63,5.67,98.3,772.00,582.6
2020-04-27,16:35:00,DRY,2.45,5.65,98.0,772.00,653.5
2020-04-27,16:40:00,DRY,2.30,5.87,91.7,772.00,501.5
2020-04-27,16:45:00,DRY,3.65,5.85,97.0,772.00,552.4
2020-04-27,16:50:00,DRY,2.23,5.50,97.7,772.00,529.6
2020-04-27,16:55:00,DRY,1.35,5.35,99.0,772.00,434.8
2020-04-27,17:00:00,DRY,3.17,5.70,98.7,772.00,563.6
2020-04-27,17:05:00,DRY,1.95,5.70,97.5,772.00,488.7
2020-04-27,17:10:00,DRY,1.70,5.83,97.0,772.00,661.3
2020-04-27,17:15:00,DRY,1.65,5.90,95.0,772.00,753.7
2020-04-27,17:20:00,DRY,2.37,5.63,97.7,772.00,406.6
2020-04-27,17:25:00,DRY,3.75,5.15,97.0,772.00,398.8
2020-04-27,17:30:00,DRY,3.87,5.03,90.0,772.00,455.0
2020-04-27,17:35:00,DRY,2.50,5.40,95.5,772.00,648.2
2020-04-27,17:40:00,DRY,2.67,5.50,97.0,772.00,475.4
2020-04-27,17:45:00,DRY,4.40,5.40,98.0,772.00,383.2
2020-04-27,17:50:00,DRY,4.37,5.30,98.0,772.00,460.0
2020-04-27,17:55:00,DRY,3.55,5.50,96.0,772.00,427.0
2020-04-27,18:00:00,DRY,4.23,5.83,80.7,772.00,471.1
2020-04-27,18:05:00,DRY,3.45,6.30,60.0,772.00,415.6
2020-04-27,18:10:00,DRY,3.23,6.43,49.3,772.00,390.8
2020-04-27,18:15:00,DRY,4.40,6.45,52.0,772.00,362.9
2020-04-27,18:20:00,DRY,2.43,6.50,50.7,772.00,341.5
2020-04-27,18:25:00,DRY,2.60,6.35,45.5,772.00,313.9
2020-04-27,18:30:00,DRY,2.93,6.23,41.0,772.00,286.5
2020-04-27,18:35:00,DRY,2.40,5.95,53.0,772.00,202.6
2020-04-27,18:40:00,DRY,3.27,5.60,62.7,772.00,188.4
2020-04-27,18:45:00,DRY,1.75,5.50,72.5,772.00,74.8
2020-04-27,18:50:00,DRY,3.07,4.93,82.3,772.00,52.0
2020-04-27,18:55:00,DRY,2.55,4.55,86.5,772.00,55.3
2020-04-27,19:00:00,DRY,3.27,4.33,84.0,772.33,61.9
2020-04-27,19:05:00,DRY,4.10,3.85,91.0,773.00,67.2
2020-04-27,19:10:00,DRY,4.57,3.37,92.3,772.67,62.7
2020-04-27,19:15:00,DRY,4.30,3.55,82.5,773.00,64.0
2020-04-27,19:20:00,DRY,3.33,3.47,95.3,772.67,58.0
2020-04-27,19:25:00,DRY,2.15,3.25,95.5,772.50,45.9
2020-04-27,19:30:00,DRY,1.90,3.37,97.3,772.33,40.5
2020-04-27,19:35:00,DRY,2.65,3.25,97.5,773.00,22.6
2020-04-27,19:40:00,DRY,3.37,3.43,98.3,772.67,17.5
2020-04-27,19:45:00,DRY,3.25,3.85,99.5,773.00,16.9
2020-04-27,19:50:00,DRY,2.43,4.10,100.0,773.00,22.3
2020-04-27,19:55:00,DRY,1.80,4.30,100.0,773.00,37.9
2020-04-27,20:00:00,DRY,2.60,4.17,100.0,772.67,61.7
2020-04-27,20:05:00,DRY,3.60,4.10,100.0,773.00,68.0
2020-04-27,20:10:00,DRY,2.97,4.27,100.0,773.00,72.6
2020-04-27,20:15:00,DRY,3.80,4.15,100.0,773.00,74.3
2020-04-27,20:20:00,DRY,1.77,3.43,100.0,773.00,70.4
2020-04-27,20:25:00,DRY,2.15,3.10,100.0,773.00,68.4
2020-04-27,20:30:00,DRY,2.80,2.83,95.7,773.00,63.0
2020-04-27,20:35:00,DRY,3.10,3.10,89.5,773.00,64.3
2020-04-27,20:40:00,DRY,1.50,3.13,73.7,773.00,49.8
2020-04-27,20:45:00,DRY,1.60,3.60,51.0,773.00,26.6
2020-04-27,20:50:00,DRY,3.20,4.10,38.3,773.00,19.4
2020-04-27,20:55:00,DRY,2.30,4.15,39.0,773.00,19.5
2020-04-27,21:00:00,DRY,1.17,3.97,44.3,773.00,20.2
2020-04-27,21:05:00,DRY,2.65,4.10,28.0,773.00,18.4
2020-04-27,21:10:00,DRY,3.53,4.80,18.0,773.00,16.6
2020-04-27,21:15:00,DRY,3.00,4.95,18.0,773.50,16.0
2020-04-27,21:20:00,DRY,3.10,4.97,17.3,774.00,15.2
2020-04-27,21:25:00,DRY,3.00,5.00,15.5,774.00,13.6
2020-04-27,21:30:00,DRY,2.50,5.00,16.3,774.00,11.0
2020-04-27,21:35:00,DRY,1.15,5.00,16.0,774.00,8.3
2020-04-27,21:40:00,DRY,1.37,4.77,20.3,774.00,3.1
2020-04-27,21:45:00,DRY,0.80,4.55,30.5,774.00,1.1
2020-04-27,21:50:00,DRY,1.13,4.57,24.7,774.00,1.6
2020-04-27,21:55:00,DRY,1.50,4.55,25.0,774.00,1.1
2020-04-27,22:00:00,DRY,1.70,4.23,41.0,774.00,1.0
2020-04-27,22:05:00,DRY,2.25,4.50,25.0,774.00,1.6
2020-04-27,22:10:00,DRY,3.87,4.53,29.3,774.00,0.9
2020-04-27,22:15:00,DRY,1.75,4.15,60.0,774.00,1.1
2020-04-27,22:20:00,DRY,1.70,3.73,71.0,774.00,0.6
2020-04-27,22:25:00,DRY,2.05,3.75,72.5,774.00,1.5
2020-04-27,22:30:00,DRY,2.90,4.13,60.0,774.00,1.4
2020-04-27,22:35:00,DRY,3.35,4.30,55.0,774.00,1.7
2020-04-27,22:40:00,DRY,2.20,4.23,62.3,774.00,0.6
2020-04-27,22:45:00,DRY,1.85,4.10,65.5,774.00,1.1
2020-04-27,22:50:00,DRY,2.33,4.03,65.0,774.00,1.1
2020-04-27,22:55:00,DRY,1.00,4.00,65.0,774.00,0.9
2020-04-27,23:00:00,DRY,1.07,4.07,62.3,774.00,1.6
2020-04-27,23:05:00,DRY,2.95,4.00,62.5,774.00,1.2
2020-04-27,23:10:00,DRY,2.20,4.17,51.0,774.00,0.9
2020-04-27,23:15:00,DRY,2.45,4.60,34.5,774.00,0.8
2020-04-27,23:20:00,DRY,2.37,4.27,46.3,774.00,1.5
2020-04-27,23:25:00,DRY,3.10,4.20,40.0,774.00,1.0
2020-04-27,23:30:00,DRY,2.83,4.20,41.3,774.00,1.4
2020-04-27,23:35:00,DRY,2.50,4.55,31.5,774.00,0.8
2020-04-27,23:40:00,DRY,2.23,4.40,38.0,774.00,1.5
2020-04-27,23:45:00,DRY,2.15,4.35,39.5,774.00,1.4
2020-04-27,23:50:00,DRY,1.60,4.20,45.3,774.00,1.3
2020-04-27,23:55:00,DRY,1.80,3.95,46.5,774.00,0.4
2020-04-28,00:00:00,DRY,3.57,4.73,22.0,774.00,1.1
2020-04-28,00:05:00,DRY,3.95,5.25,15.0,774.00,1.2
2020-04-28,00:10:00,DRY,2.40,4.93,20.0,774.00,1.2
2020-04-28,00:15:00,DRY,2.10,5.00,19.5,774.00,1.1
2020-04-28,00:20:00,DRY,2.07,5.17,18.0,774.00,0.9
2020-04-28,00:25:00,DRY,1.85,5.00,17.5,774.00,1.5
2020-04-28,00:30:00,DRY,2.17,5.17,16.3,774.00,0.9
2020-04-28,00:35:00,DRY,2.40,5.25,15.0,774.00,1.8
2020-04-28,00:40:00,DRY,2.77,5.17,15.3,773.67,1.4
2020-04-28,00:45:00,DRY,2.95,5.05,13.5,774.00,0.6
2020-04-28,00:50:00,DRY,3.07,5.23,13.3,773.67,0.9
2020-04-28,00:55:00,DRY,2.85,5.35,11.5,773.50,0.7
2020-04-28,01:00:00,DRY,3.33,5.57,10.7,773.00,1.3
2020-04-28,01:05:00,DRY,3.45,5.60,11.0,773.00,1.1
2020-04-28,01:10:00,DRY,3.60,5.70,10.0,773.00,1.2
2020-04-28,01:15:00,DRY,3.35,5.65,10.5,773.00,1.2
2020-04-28,01:20:00,DRY,3.17,5.53,10.7,773.00,1.1
2020-04-28,01:25:00,DRY,3.45,5.75,10.5,773.00,1.3
2020-04-28,01:30:00,DRY,2.87,5.70,10.7,773.00,1.1
2020-04-28,01:35:00,DRY,2.55,5.65,10.0,773.00,1.2
2020-04-28,01:40:00,DRY,3.13,5.60,11.0,773.00,1.2
2020-04-28,01:45:00,DRY,3.75,5.45,11.5,773.00,0.9
2020-04-28,01:50:00,DRY,4.20,5.63,11.0,773.00,0.9
2020-04-28,01:55:00,DRY,4.00,5.90,10.0,773.00,1.0
2020-04-28,02:00:00,DRY,4.00,5.97,10.7,773.00,1.6
2020-04-28,02:05:00,DRY,3.45,6.15,9.5,773.00,2.1
2020-04-28,02:10:00,DRY,2.60,6.30,9.0,773.00,1.2
2020-04-28,02:15:00,DRY,3.60,5.95,10.0,773.00,1.3
2020-04-28,02:20:00,DRY,3.30,6.17,10.0,773.00,1.3
2020-04-28,02:25:00,DRY,3.40,6.10,10.0,773.00,1.1
2020-04-28,02:30:00,DRY,3.00,6.13,10.3,773.00,0.7
2020-04-28,02:35:00,DRY,2.75,6.10,11.0,773.00,0.9
2020-04-28,02:40:00,DRY,2.87,6.17,10.7,773.00,1.4
2020-04-28,02:45:00,DRY,3.75,6.45,11.0,773.00,1.1
2020-04-28,02:50:00,DRY,3.33,6.47,10.7,773.00,0.9
2020-04-28,02:55:00,DRY,2.70,6.50,10.0,773.00,0.3
2020-04-28,03:00:00,DRY,3.30,6.57,11.0,773.00,1.1
2020-04-28,03:05:00,DRY,3.10,6.60,12.5,773.00,1.0
2020-04-28,03:10:00,DRY,3.20,6.50,13.3,773.00,0.9
2020-04-28,03:15:00,DRY,2.80,6.45,15.0,773.00,0.6
2020-04-28,03:20:00,DRY,3.27,6.47,15.0,773.00,1.3
2020-04-28,03:25:00,DRY,2.60,6.55,15.5,773.00,0.2
2020-04-28,03:30:00,DRY,2.70,6.47,16.0,773.00,1.0
2020-04-28,03:35:00,DRY,2.40,6.40,15.5,773.00,1.8
2020-04-28,03:40:00,DRY,2.57,6.47,14.7,773.00,1.6
2020-04-28,03:45:00,DRY,1.95,6.55,14.5,773.00,1.3
2020-04-28,03:50:00,DRY,2.03,6.67,14.3,773.00,0.9
2020-04-28,03:55:00,DRY,2.05,6.80,14.5,773.00,0.4
2020-04-28,04:00:00,DRY,2.53,6.73,14.0,773.00,0.9
2020-04-28,04:05:00,DRY,2.05,6.75,15.0,773.00,1.4
2020-04-28,04:10:00,DRY,2.30,6.70,14.7,773.00,1.0
2020-04-28,04:15:00,DRY,2.35,6.65,13.0,773.00,1.4
2020-04-28,04:20:00,DRY,2.63,6.60,14.3,773.00,0.6
2020-04-28,04:25:00,DRY,2.25,6.65,15.0,773.00,0.5
2020-04-28,04:30:00,DRY,1.93,6.77,14.0,773.00,1.3
2020-04-28,04:35:00,DRY,2.15,6.65,15.5,773.00,0.9
2020-04-28,04:40:00,DRY,1.77,6.73,15.7,773.00,1.5
2020-04-28,04:45:00,DRY,1.75,6.80,15.0,773.00,0.3
2020-04-28,04:50:00,DRY,1.67,6.90,14.7,773.00,0.4
2020-04-28,04:55:00,DRY,1.50,6.80,15.0,773.00,0.2
2020-04-28,05:00:00,DRY,1.33,6.83,14.7,773.00,0.8
2020-04-28,05:05:00,DRY,1.60,6.70,14.5,773.00,1.7
2020-04-28,05:10:00,DRY,1.63,7.00,14.3,773.00,0.6
2020-04-28,05:15:00,DRY,1.80,7.00,14.0,773.00,1.8
2020-04-28,05:20:00,DRY,1.77,7.00,14.0,773.00,0.7
2020-04-28,05:25:00,DRY,1.70,6.90,15.0,773.00,1.1
2020-04-28,05:30:00,DRY,1.47,6.97,14.3,773.00,1.4
2020-04-28,05:35:00,DRY,1.85,7.25,14.0,773.00,1.5
2020-04-28,05:40:00,DRY,1.90,7.00,14.0,773.00,1.2
2020-04-28,05:45:00,DRY,2.00,6.85,14.5,773.00,1.6
2020-04-28,05:50:00,DRY,3.47,6.63,15.0,773.00,1.3
2020-04-28,05:55:00,DRY,3.20,6.10,18.5,773.00,1.0
2020-04-28,06:00:00,DRY,3.53,6.27,17.0,773.00,1.1
2020-04-28,06:05:00,DRY,2.80,6.60,15.0,773.00,1.1
2020-04-28,06:10:00,DRY,2.93,6.10,16.3,773.00,1.3
2020-04-28,06:15:00,DRY,1.85,6.15,15.0,773.00,1.4
2020-04-28,06:20:00,DRY,1.77,6.70,13.0,773.00,2.3
2020-04-28,06:25:00,DRY,2.25,6.80,13.5,773.00,3.7
2020-04-28,06:30:00,DRY,2.03,6.13,15.3,773.00,6.8
2020-04-28,06:35:00,DRY,0.90,6.35,14.5,773.00,11.7
2020-04-28,06:40:00,DRY,0.33,7.03,9.3,773.00,13.7
2020-04-28,06:45:00,DRY,1.45,7.30,10.0,773.00,26.8
2020-04-28,06:50:00,DRY,2.43,6.83,13.7,773.00,23.4
2020-04-28,06:55:00,DRY,0.50,6.85,9.0,773.50,40.8
2020-04-28,07:00:00,DRY,1.23,7.33,10.0,774.00,48.7
2020-04-28,07:05:00,DRY,1.50,7.20,10.5,774.00,40.7
2020-04-28,07:10:00,DRY,1.67,7.03,11.3,774.00,51.1
2020-04-28,07:15:00,DRY,1.45,6.70,14.0,774.00,60.4
2020-04-28,07:20:00,DRY,1.10,6.53,14.7,774.00,77.6
2020-04-28,07:25:00,DRY,0.95,6.40,15.0,774.00,102.4
2020-04-28,07:30:00,DRY,0.97,6.60,12.0,774.00,134.3
2020-04-28,07:35:00,DRY,2.00,7.10,13.5,774.00,159.0
2020-04-28,07:40:00,DRY,1.57,6.87,12.3,774.00,171.6
2020-04-28,07:45:00,DRY,2.10,6.75,13.0,774.00,180.9
2020-04-28,07:50:00,DRY,1.53,6.73,13.3,774.00,174.6
2020-04-28,07:55:00,DRY,1.40,6.90,13.5,774.00,155.8
2020-04-28,08:00:00,DRY,1.90,6.63,15.0,774.00,135.0
2020-04-28,08:05:00,DRY,1.75,6.80,11.5,774.00,146.9
2020-04-28,08:10:00,DRY,1.63,7.20,13.7,774.00,307.8
2020-04-28,08:15:00,DRY,1.80,7.75,14.0,774.00,389.1
2020-04-28,08:20:00,DRY,1.70,7.83,13.0,774.00,458.4
2020-04-28,08:25:00,DRY,2.15,7.65,13.0,774.00,481.1
2020-04-28,08:30:00,DRY,1.27,8.03,14.7,774.00,495.6
2020-04-28,08:35:00,DRY,1.95,7.65,15.0,774.00,521.8
2020-04-28,08:40:00,DRY,2.03,7.70,15.0,774.00,543.4
2020-04-28,08:45:00,DRY,2.15,7.95,19.5,774.00,564.8
2020-04-28,08:50:00,DRY,2.07,7.50,16.3,774.00,585.3
2020-04-28,08:55:00,DRY,1.80,7.60,19.0,774.00,607.4
2020-04-28,09:00:00,DRY,2.23,7.60,21.7,774.00,628.8
2020-04-28,09:05:00,DRY,1.70,7.45,22.0,774.00,648.8
2020-04-28,09:10:00,DRY,1.87,7.80,24.7,774.00,668.5
2020-04-28,09:15:00,DRY,1.75,7.75,25.0,774.00,688.9
2020-04-28,09:20:00,DRY,2.57,7.70,21.3,774.00,708.8
2020-04-28,09:25:00,DRY,2.65,8.05,22.0,774.00,728.8
2020-04-28,09:30:00,DRY,2.60,7.73,22.7,774.00,753.1
2020-04-28,09:35:00,DRY,2.30,7.65,20.5,774.00,807.5
2020-04-28,09:40:00,DRY,1.20,7.43,22.7,774.00,780.4
2020-04-28,09:45:00,DRY,1.50,7.60,26.0,774.00,813.1
2020-04-28,09:50:00,DRY,2.50,7.40,24.0,774.00,645.0
2020-04-28,09:55:00,DRY,2.30,7.60,21.5,774.00,862.8
2020-04-28,10:00:00,DRY,2.30,7.73,22.0,774.00,660.5
2020-04-28,10:05:00,DRY,2.40,7.60,19.0,774.00,810.0
2020-04-28,10:10:00,DRY,2.53,7.97,14.3,774.00,956.8
2020-04-28,10:15:00,DRY,2.60,8.30,17.0,774.00,1022.2
2020-04-28,10:20:00,DRY,3.20,8.43,19.0,774.67,1017.4
2020-04-28,10:25:00,DRY,2.10,8.30,26.0,774.00,919.2
2020-04-28,10:30:00,DRY,2.47,8.00,30.0,774.33,842.2
2020-04-28,10:35:00,DRY,3.30,7.80,26.0,774.00,820.9
2020-04-28,10:40:00,DRY,2.77,7.97,29.3,774.33,945.9
2020-04-28,10:45:00,DRY,3.90,8.35,28.0,774.50,997.2
2020-04-28,10:50:00,DRY,3.13,8.57,32.7,775.00,910.8
2020-04-28,10:55:00,DRY,4.90,8.50,31.0,775.00,815.6
2020-04-28,11:00:00,DRY,3.63,8.53,29.7,775.00,807.7
2020-04-28,11:05:00,DRY,4.05,8.60,33.0,775.00,1064.9
2020-04-28,11:10:00,DRY,3.23,9.00,39.0,775.00,1091.9
2020-04-28,11:15:00,DRY,4.20,9.00,40.0,775.00,854.2
2020-04-28,11:20:00,DRY,3.93,8.53,50.3,775.00,967.4
2020-04-28,11:25:00,DRY,3.20,8.75,44.5,775.00,1114.4
2020-04-28,11:30:00,DRY,3.83,8.73,55.3,775.00,1196.4
2020-04-28,11:35:00,DRY,4.40,8.70,45.5,775.00,910.0
2020-04-28,11:40:00,DRY,3.77,8.60,52.3,775.00,1001.3
2020-04-28,11:45:00,DRY,3.70,8.80,51.5,775.00,1127.2
2020-04-28,11:50:00,DRY,3.37,9.07,53.0,775.00,1113.1
2020-04-28,11:55:00,DRY,3.55,8.85,54.0,775.00,1152.7
2020-04-28,12:00:00,DRY,3.67,8.97,57.3,775.00,1109.4
2020-04-28,12:05:00,DRY,3.80,8.80,63.0,775.00,1159.8
2020-04-28,12:10:00,DRY,3.20,8.87,60.7,775.00,1140.8
2020-04-28,12:15:00,DRY,5.35,8.75,53.5,775.00,998.4
2020-04-28,12:20:00,DRY,3.40,8.57,62.0,775.00,1092.1
2020-04-28,12:25:00,DRY,2.70,8.55,57.0,775.00,1164.2
2020-04-28,12:30:00,DRY,4.03,8.87,55.7,775.00,1172.3
2020-04-28,12:35:00,DRY,3.90,8.65,53.5,775.00,1166.6
2020-04-28,12:40:00,DRY,4.03,9.40,50.0,775.00,1206.0
2020-04-28,12:45:00,DRY,3.25,9.65,49.0,775.00,1169.8
2020-04-28,12:50:00,DRY,2.57,9.87,51.7,775.00,1171.6
2020-04-28,12:55:00,DRY,2.65,10.00,51.0,775.00,1202.1
2020-04-28,13:00:00,DRY,1.23,10.40,56.0,775.00,1177.7
2020-04-28,13:05:00,DRY,2.25,11.00,51.5,775.00,1235.2
2020-04-28,13:10:00,DRY,3.73,10.47,55.7,775.00,1206.9
2020-04-28,13:15:00,DRY,2.70,9.30,56.0,775.00,1113.3
2020-04-28,13:20:00,DRY,2.93,9.43,69.3,775.00,1159.6
2020-04-28,13:25:00,DRY,3.60,9.60,69.0,775.00,1067.8
2020-04-28,13:30:00,DRY,3.60,10.00,51.0,775.00,1040.4
2020-04-28,13:35:00,DRY,1.40,8.60,77.0,775.00,1168.9
2020-04-28,13:40:00,DRY,3.30,9.93,60.3,775.00,1147.7
2020-04-28,13:45:00,DRY,2.00,9.95,58.5,775.00,1159.1
2020-04-28,13:50:00,DRY,1.77,9.77,65.7,775.00,1102.1
2020-04-28,13:55:00,DRY,3.25,10.30,61.5,775.00,1166.5
2020-04-28,14:00:00,DRY,2.50,10.43,57.3,775.00,1209.9
2020-04-28,14:05:00,DRY,4.25,9.65,62.0,775.00,1107.1
2020-04-28,14:10:00,DRY,2.15,9.40,54.5,775.00,1099.7
2020-04-28,14:15:00,DRY,3.95,9.75,59.5,775.00,1043.3
2020-04-28,14:20:00,DRY,3.00,9.80,58.7,775.00,1010.8
2020-04-28,14:25:00,DRY,4.00,9.75,57.0,775.00,1031.9
2020-04-28,14:30:00,DRY,2.50,9.27,55.0,775.00,1001.5
2020-04-28,14:35:00,DRY,3.45,9.70,45.5,775.00,929.2
2020-04-28,14:40:00,DRY,2.07,9.63,50.0,775.00,1002.7
2020-04-28,14:45:00,DRY,4.20,10.05,52.5,775.00,944.1
2020-04-28,14:50:00,DRY,3.37,9.93,49.7,775.00,887.7
2020-04-28,14:55:00,DRY,2.90,10.10,42.5,775.00,947.4
2020-04-28,15:00:00,DRY,3.63,9.90,47.3,775.00,1004.3
2020-04-28,15:05:00,DRY,4.05,10.20,45.0,775.00,933.1
2020-04-28,15:10:00,DRY,3.23,10.13,43.7,775.00,1058.2
2020-04-28,15:15:00,DRY,4.20,9.65,44.5,775.00,1017.9
2020-04-28,15:20:00,DRY,4.03,9.90,46.3,775.00,963.0
2020-04-28,15:25:00,DRY,3.10,9.95,47.0,775.00,1034.0
2020-04-28,15:30:00,DRY,2.77,9.67,47.7,775.00,946.2
2020-04-28,15:35:00,DRY,2.85,9.45,55.0,775.00,941.8
2020-04-28,15:40:00,DRY,4.57,9.60,48.0,775.00,906.5
2020-04-28,15:45:00,DRY,3.10,10.10,54.0,775.00,983.4
2020-04-28,15:50:00,DRY,4.27,9.97,51.7,775.00,956.9
2020-04-28,15:55:00,DRY,4.75,9.85,51.5,775.00,944.4
2020-04-28,16:00:00,DRY,2.67,9.53,49.0,775.00,769.7
2020-04-28,16:05:00,DRY,3.70,9.50,45.0,775.00,824.3
2020-04-28,16:10:00,DRY,3.67,9.57,53.3,775.00,840.5
2020-04-28,16:15:00,DRY,3.60,9.60,53.5,775.00,754.7
2020-04-28,16:20:00,DRY,3.10,9.27,48.7,775.00,716.6
2020-04-28,16:25:00,DRY,2.90,9.20,48.0,775.00,728.0
2020-04-28,16:30:00,DRY,3.57,9.17,46.3,775.00,681.3
2020-04-28,16:35:00,DRY,4.05,9.30,51.5,775.00,640.6
2020-04-28,16:40:00,DRY,4.20,9.17,48.0,775.00,676.0
2020-04-28,16:45:00,DRY,4.15,8.95,50.0,775.00,718.7
2020-04-28,16:50:00,DRY,4.80,9.23,48.3,775.00,631.4
2020-04-28,16:55:00,DRY,4.75,8.95,45.0,774.50,590.5
2020-04-28,17:00:00,DRY,4.13,8.67,41.0,774.67,641.0
2020-04-28,17:05:00,DRY,5.55,8.70,44.0,775.00,572.5
2020-04-28,17:10:00,DRY,2.57,8.60,41.0,775.00,586.0
2020-04-28,17:15:00,DRY,3.30,8.75,41.0,775.00,644.5
2020-04-28,17:20:00,DRY,3.70,8.53,42.3,775.00,636.0
2020-04-28,17:25:00,DRY,4.60,8.70,39.5,775.00,530.8
2020-04-28,17:30:00,DRY,3.50,8.53,39.3,775.00,481.7
2020-04-28,17:35:00,DRY,4.00,8.45,40.0,775.00,416.0
2020-04-28,17:40:00,DRY,4.17,7.77,40.3,775.00,291.0
2020-04-28,17:45:00,DRY,6.25,7.75,41.5,775.00,253.8
2020-04-28,17:50:00,DRY,5.03,7.40,42.3,774.67,242.2
2020-04-28,17:55:00,DRY,4.95,7.15,41.0,774.50,217.4
2020-04-28,18:00:00,DRY,5.30,7.03,40.7,774.67,204.8
2020-04-28,18:05:00,DRY,7.30,7.00,40.5,775.00,193.6
2020-04-28,18:10:00,DRY,5.75,6.75,40.0,775.00,197.3
2020-04-28,18:15:00,DRY,5.10,6.80,40.5,775.00,180.3
2020-04-28,18:20:00,DRY,4.90,6.80,39.7,775.00,177.0
2020-04-28,18:25:00,DRY,4.40,6.85,39.0,775.00,174.4
2020-04-28,18:30:00,DRY,5.43,6.83,39.0,775.00,187.6
2020-04-28,18:35:00,DRY,4.70,6.75,39.5,775.00,201.0
2020-04-28,18:40:00,DRY,6.50,6.73,39.3,775.00,192.7
2020-04-28,18:45:00,DRY,6.35,6.60,39.0,775.00,144.8
2020-04-28,18:50:00,DRY,7.17,6.50,39.7,775.00,117.7
2020-04-28,18:55:00,DRY,7.00,6.30,40.0,775.00,104.5
2020-04-28,19:00:00,DRY,5.63,6.20,39.7,775.00,94.1
2020-04-28,19:05:00,DRY,5.70,6.20,40.5,775.00,86.5
2020-04-28,19:10:00,DRY,6.17,6.17,41.0,775.00,77.0